Location: Unspecified
(33.9239°N, 118.0544°W)
Time: 08:29:44
(UTC-07:00)

Cosmos 2058 - Visible Passes

Search period start: 01 October 2016 00:00
Search period end: 11 October 2016 00:00
Orbit: 563 x 587 km, 82.5° (Epoch: 01 October)

Date Brightness Start Highest point End Pass type
(mag) Time Alt. Az. Time Alt. Az. Time Alt. Az.
01 Oct 5.5 21:07:28 10° NNW 21:08:17 15° NNW 21:08:17 15° NNW visible
02 Oct 5.1 19:35:43 10° NE 19:36:04 11° NE 19:36:04 11° NE visible
02 Oct 5.5 21:11:13 10° NNW 21:12:20 17° NW 21:12:20 17° NW visible
03 Oct 4.6 19:38:36 10° NNE 19:40:12 16° NE 19:40:12 16° NE visible
03 Oct 5.6 21:15:06 10° NW 21:16:29 17° NW 21:16:29 17° NW visible
04 Oct 4.0 19:41:44 10° NNE 19:44:29 24° ENE 19:44:29 24° ENE visible
04 Oct 5.7 21:19:07 10° NW 21:20:47 16° WNW 21:20:47 16° WNW visible
05 Oct 3.4 19:45:00 10° NNE 19:48:49 35° E 19:48:58 35° E visible
05 Oct 5.9 21:23:28 10° WNW 21:25:16 13° W 21:25:16 13° W visible
06 Oct 3.0 19:48:22 10° N 19:52:24 49° E 19:53:43 35° SE visible
07 Oct 2.7 19:51:50 10° N 19:55:58 71° E 19:59:00 18° SSE visible
08 Oct 2.9 19:55:22 10° N 19:59:31 82° W 20:03:41 10° S visible
09 Oct 3.5 19:58:59 10° NNW 20:03:03 57° W 20:07:08 10° S visible
10 Oct 4.2 20:02:40 10° NNW 20:06:34 40° W 20:10:28 10° SSW visible
